owner,sensor,date,latitude,longitude,vertical_datum,wind_speed,wind_to_direction,wind_speed_of_gust,qcFlag 
TCOON,ioos:station:TCOON:146:1,2016-11-01T00:30:00Z,28.1324,-97.0345,0.0,4.1,168.0,4.9,'1111122,1111122,1111122' 
TCOON,ioos:station:TCOON:146:1,2016-11-01T01:30:00Z,28.1324,-97.0345,0.0,4.4,168.0,5.3,'1111122,1111122,1111122' 
TCOON,ioos:station:TCOON:146:1,2016-11-01T02:30:00Z,28.1324,-97.0345,0.0,3.9,173.0,4.5,'1111122,1111122,1111122' 
TCOON,ioos:station:TCOON:146:1,2016-11-01T03:30:00Z,28.1324,-97.0345,0.0,3.4,166.0,4.2,'1111122,1111122,1111122' 
TCOON,ioos:station:TCOON:146:1,2016-11-01T04:30:00Z,28.1324,-97.0345,0.0,3.3,171.0,3.9,'1111122,1111122,1111122' 
TCOON,ioos:station:TCOON:146:1,2016-11-01T05:30:00Z,28.1324,-97.0345,0.0,3.0,195.0,3.5,'1111122,1111122,1111122' 
TCOON,ioos:station:TCOON:146:1,2016-11-01T06:30:00Z,28.1324,-97.0345,0.0,3.6,212.0,4.1,'1111122,1111122,1111122' 
TCOON,ioos:station:TCOON:146:1,2016-11-01T07:30:00Z,28.1324,-97.0345,0.0,3.4,216.0,4.2,'1111122,1111122,1111122' 
TCOON,ioos:station:TCOON:146:1,2016-11-01T08:30:00Z,28.1324,-97.0345,0.0,3.6,221.0,4.3,'1111122,1111122,1111122' 
TCOON,ioos:station:TCOON:146:1,2016-11-01T09:30:00Z,28.1324,-97.0345,0.0,3.8,224.0,4.9,'1111122,1111122,1111122' 
TCOON,ioos:station:TCOON:146:1,2016-11-01T10:30:00Z,28.1324,-97.0345,0.0,3.7,224.0,4.2,'1111122,1111122,1111122' 
TCOON,ioos:station:TCOON:146:1,2016-11-01T11:30:00Z,28.1324,-97.0345,0.0,3.2,222.0,4.0,'1111122,1111122,1111122' 
TCOON,ioos:station:TCOON:146:1,2016-11-01T12:30:00Z,28.1324,-97.0345,0.0,3.2,227.0,3.8,'1111122,1111122,1111122' 
TCOON,ioos:station:TCOON:146:1,2016-11-01T13:30:00Z,28.1324,-97.0345,0.0,3.2,221.0,3.9,'1111122,1111122,1111122' 
TCOON,ioos:station:TCOON:146:1,2016-11-01T14:30:00Z,28.1324,-97.0345,0.0,3.3,231.0,4.0,'1111122,1111122,1111122' 
TCOON,ioos:station:TCOON:146:1,2016-11-01T15:30:00Z,28.1324,-97.0345,0.0,3.3,212.0,3.9,'1111122,1111122,1111122' 
TCOON,ioos:station:TCOON:146:1,2016-11-01T16:30:00Z,28.1324,-97.0345,0.0,3.5,250.0,4.2,'1111122,1111122,1111122' 
TCOON,ioos:station:TCOON:146:1,2016-11-01T17:30:00Z,28.1324,-97.0345,0.0,3.7,231.0,5.0,'1111122,1111122,1111122' 
TCOON,ioos:station:TCOON:146:1,2016-11-01T18:30:00Z,28.1324,-97.0345,0.0,3.7,225.0,4.7,'1111122,1111122,1111122' 
TCOON,ioos:station:TCOON:146:1,2016-11-01T19:30:00Z,28.1324,-97.0345,0.0,3.6,220.0,4.3,'1111122,1111122,1111122' 
TCOON,ioos:station:TCOON:146:1,2016-11-01T20:30:00Z,28.1324,-97.0345,0.0,3.0,205.0,4.0,'1111122,1111122,1111122' 
TCOON,ioos:station:TCOON:146:1,2016-11-01T21:30:00Z,28.1324,-97.0345,0.0,3.6,195.0,4.2,'1111122,1111122,1111122' 
TCOON,ioos:station:TCOON:146:1,2016-11-01T22:30:00Z,28.1324,-97.0345,0.0,3.6,198.0,4.4,'1111122,1111122,1111122' 
TCOON,ioos:station:TCOON:146:1,2016-11-01T23:30:00Z,28.1324,-97.0345,0.0,3.6,192.0,4.4,'1111122,1111122,1111122' 
TCOON,ioos:station:TCOON:146:1,2016-11-02T00:30:00Z,28.1324,-97.0345,0.0,6.0,184.0,7.0,'1111122,1111122,1111122' 
TCOON,ioos:station:TCOON:146:1,2016-11-02T17:30:00Z,28.1324,-97.0345,0.0,3.4,203.0,4.3,'1111122,1111122,1111122' 
TCOON,ioos:station:TCOON:146:1,2016-11-02T18:30:00Z,28.1324,-97.0345,0.0,3.0,199.0,3.7,'1111122,1111122,1111122' 
TCOON,ioos:station:TCOON:146:1,2016-11-02T19:30:00Z,28.1324,-97.0345,0.0,3.0,203.0,3.6,'1111122,1111122,1111122' 
TCOON,ioos:station:TCOON:146:1,2016-11-02T20:30:00Z,28.1324,-97.0345,0.0,3.2,194.0,3.8,'1111122,1111122,1111122' 
TCOON,ioos:station:TCOON:146:1,2016-11-02T21:30:00Z,28.1324,-97.0345,0.0,3.8,182.0,4.4,'1111122,1111122,1111122' 
TCOON,ioos:station:TCOON:146:1,2016-11-02T22:30:00Z,28.1324,-97.0345,0.0,4.2,170.0,5.1,'1111122,1111122,1111122' 
TCOON,ioos:station:TCOON:146:1,2016-11-02T23:30:00Z,28.1324,-97.0345,0.0,4.8,166.0,5.7,'1111122,1111122,1111122' 
TCOON,ioos:station:TCOON:146:1,2016-11-03T00:30:00Z,28.1324,-97.0345,0.0,5.3,171.0,6.9,'1111122,1111122,1111122' 
TCOON,ioos:station:TCOON:146:1,2016-11-03T01:30:00Z,28.1324,-97.0345,0.0,5.9,176.0,7.1,'1111122,1111122,1111122' 
TCOON,ioos:station:TCOON:146:1,2016-11-03T02:30:00Z,28.1324,-97.0345,0.0,4.8,180.0,5.9,'1111122,1111122,1111122' 
TCOON,ioos:station:TCOON:146:1,2016-11-03T03:30:00Z,28.1324,-97.0345,0.0,4.5,181.0,5.3,'1111122,1111122,1111122' 
TCOON,ioos:station:TCOON:146:1,2016-11-03T04:30:00Z,28.1324,-97.0345,0.0,5.3,186.0,6.4,'1111122,1111122,1111122' 
TCOON,ioos:station:TCOON:146:1,2016-11-03T05:30:00Z,28.1324,-97.0345,0.0,4.9,205.0,6.1,'1111122,1111122,1111122' 
TCOON,ioos:station:TCOON:146:1,2016-11-03T06:30:00Z,28.1324,-97.0345,0.0,4.7,203.0,5.8,'1111122,1111122,1111122' 
TCOON,ioos:station:TCOON:146:1,2016-11-03T07:30:00Z,28.1324,-97.0345,0.0,3.5,211.0,4.6,'1111122,1111122,1111122' 
TCOON,ioos:station:TCOON:146:1,2016-11-03T08:30:00Z,28.1324,-97.0345,0.0,3.2,199.0,3.8,'1111122,1111122,1111122' 
TCOON,ioos:station:TCOON:146:1,2016-11-03T09:30:00Z,28.1324,-97.0345,0.0,3.2,192.0,3.7,'1111122,1111122,1111122' 
TCOON,ioos:station:TCOON:146:1,2016-11-03T10:30:00Z,28.1324,-97.0345,0.0,3.3,145.0,3.8,'1111122,1111122,1111122' 
TCOON,ioos:station:TCOON:146:1,2016-11-03T11:30:00Z,28.1324,-97.0345,0.0,2.2,134.0,2.6,'1111122,1111122,1111122' 
TCOON,ioos:station:TCOON:146:1,2016-11-03T12:30:00Z,28.1324,-97.0345,0.0,3.1,101.0,3.5,'1111122,1111122,1111122' 
TCOON,ioos:station:TCOON:146:1,2016-11-03T13:30:00Z,28.1324,-97.0345,0.0,3.8,102.0,4.2,'1111122,1111122,1111122' 
TCOON,ioos:station:TCOON:146:1,2016-11-03T14:30:00Z,28.1324,-97.0345,0.0,2.8,125.0,3.8,'1111122,1111122,1111122' 
TCOON,ioos:station:TCOON:146:1,2016-11-03T15:30:00Z,28.1324,-97.0345,0.0,3.5,171.0,4.5,'1111122,1111122,1111122' 
TCOON,ioos:station:TCOON:146:1,2016-11-03T16:30:00Z,28.1324,-97.0345,0.0,4.0,171.0,5.0,'1111122,1111122,1111122' 
TCOON,ioos:station:TCOON:146:1,2016-11-03T17:30:00Z,28.1324,-97.0345,0.0,4.2,176.0,5.1,'1111122,1111122,1111122' 
TCOON,ioos:station:TCOON:146:1,2016-11-03T18:30:00Z,28.1324,-97.0345,0.0,3.8,175.0,4.4,'1111122,1111122,1111122' 
TCOON,ioos:station:TCOON:146:1,2016-11-03T19:30:00Z,28.1324,-97.0345,0.0,4.0,178.0,4.7,'1111122,1111122,1111122' 
TCOON,ioos:station:TCOON:146:1,2016-11-03T20:30:00Z,28.1324,-97.0345,0.0,3.7,188.0,4.7,'1111122,1111122,1111122' 
TCOON,ioos:station:TCOON:146:1,2016-11-03T21:30:00Z,28.1324,-97.0345,0.0,3.8,186.0,4.4,'1111122,1111122,1111122' 
TCOON,ioos:station:TCOON:146:1,2016-11-03T22:30:00Z,28.1324,-97.0345,0.0,3.7,188.0,4.4,'1111122,1111122,1111122' 
TCOON,ioos:station:TCOON:146:1,2016-11-03T23:30:00Z,28.1324,-97.0345,0.0,3.9,167.0,4.7,'1111122,1111122,1111122' 
TCOON,ioos:station:TCOON:146:1,2016-11-04T00:30:00Z,28.1324,-97.0345,0.0,3.8,164.0,4.5,'1111122,1111122,1111122' 
TCOON,ioos:station:TCOON:146:1,2016-11-04T01:30:00Z,28.1324,-97.0345,0.0,3.9,164.0,4.7,'1111122,1111122,1111122' 
TCOON,ioos:station:TCOON:146:1,2016-11-04T02:30:00Z,28.1324,-97.0345,0.0,3.1,142.0,3.8,'1111122,1111122,1111122' 
TCOON,ioos:station:TCOON:146:1,2016-11-04T03:30:00Z,28.1324,-97.0345,0.0,3.7,114.0,4.1,'1111122,1111122,1111122' 
TCOON,ioos:station:TCOON:146:1,2016-11-04T04:30:00Z,28.1324,-97.0345,0.0,3.5,113.0,4.5,'1111122,1111122,1111122' 
TCOON,ioos:station:TCOON:146:1,2016-11-04T05:30:00Z,28.1324,-97.0345,0.0,2.8,143.0,3.5,'1111122,1111122,1111122' 
TCOON,ioos:station:TCOON:146:1,2016-11-04T06:30:00Z,28.1324,-97.0345,0.0,3.8,180.0,4.5,'1111122,1111122,1111122' 
TCOON,ioos:station:TCOON:146:1,2016-11-04T07:30:00Z,28.1324,-97.0345,0.0,3.9,86.0,4.9,'1111122,1111122,1111122' 
TCOON,ioos:station:TCOON:146:1,2016-11-04T08:30:00Z,28.1324,-97.0345,0.0,4.0,83.0,4.8,'1111122,1111122,1111122' 
TCOON,ioos:station:TCOON:146:1,2016-11-04T09:30:00Z,28.1324,-97.0345,0.0,4.3,91.0,5.1,'1111122,1111122,1111122' 
TCOON,ioos:station:TCOON:146:1,2016-11-04T10:30:00Z,28.1324,-97.0345,0.0,5.0,82.0,5.7,'1111122,1111122,1111122' 
TCOON,ioos:station:TCOON:146:1,2016-11-04T11:30:00Z,28.1324,-97.0345,0.0,5.1,84.0,6.0,'1111122,1111122,1111122' 
TCOON,ioos:station:TCOON:146:1,2016-11-04T12:30:00Z,28.1324,-97.0345,0.0,4.2,90.0,5.0,'1111122,1111122,1111122' 
TCOON,ioos:station:TCOON:146:1,2016-11-04T13:30:00Z,28.1324,-97.0345,0.0,4.0,94.0,4.7,'1111122,1111122,1111122' 
TCOON,ioos:station:TCOON:146:1,2016-11-04T14:30:00Z,28.1324,-97.0345,0.0,3.9,107.0,4.8,'1111122,1111122,1111122' 
TCOON,ioos:station:TCOON:146:1,2016-11-04T15:30:00Z,28.1324,-97.0345,0.0,3.9,95.0,4.7,'1111122,1111122,1111122' 
TCOON,ioos:station:TCOON:146:1,2016-11-04T16:30:00Z,28.1324,-97.0345,0.0,4.0,75.0,4.7,'1111122,1111122,1111122' 
TCOON,ioos:station:TCOON:146:1,2016-11-04T17:30:00Z,28.1324,-97.0345,0.0,3.8,111.0,4.7,'1111122,1111122,1111122' 
TCOON,ioos:station:TCOON:146:1,2016-11-04T18:30:00Z,28.1324,-97.0345,0.0,2.9,158.0,3.8,'1111122,1111122,1111122' 
TCOON,ioos:station:TCOON:146:1,2016-11-04T19:30:00Z,28.1324,-97.0345,0.0,2.9,188.0,4.0,'1111122,1111122,1111122' 
TCOON,ioos:station:TCOON:146:1,2016-11-04T20:30:00Z,28.1324,-97.0345,0.0,3.2,148.0,3.9,'1111122,1111122,1111122' 
TCOON,ioos:station:TCOON:146:1,2016-11-04T21:30:00Z,28.1324,-97.0345,0.0,3.3,170.0,3.8,'1111122,1111122,1111122' 
TCOON,ioos:station:TCOON:146:1,2016-11-04T22:30:00Z,28.1324,-97.0345,0.0,3.2,153.0,4.2,'1111122,1111122,1111122' 
TCOON,ioos:station:TCOON:146:1,2016-11-04T23:30:00Z,28.1324,-97.0345,0.0,3.4,177.0,4.1,'1111122,1111122,1111122' 
TCOON,ioos:station:TCOON:146:1,2016-11-05T00:30:00Z,28.1324,-97.0345,0.0,3.2,160.0,3.9,'1111122,1111122,1111122' 
TCOON,ioos:station:TCOON:146:1,2016-11-05T01:30:00Z,28.1324,-97.0345,0.0,3.1,147.0,3.9,'1111122,1111122,1111122' 
TCOON,ioos:station:TCOON:146:1,2016-11-05T02:30:00Z,28.1324,-97.0345,0.0,2.2,136.0,2.7,'1111122,1111122,1111122' 
TCOON,ioos:station:TCOON:146:1,2016-11-05T03:30:00Z,28.1324,-97.0345,0.0,1.8,100.0,2.3,'1111122,1111122,1111122' 
TCOON,ioos:station:TCOON:146:1,2016-11-05T04:30:00Z,28.1324,-97.0345,0.0,3.7,57.0,4.2,'1111122,1111122,1111122' 
TCOON,ioos:station:TCOON:146:1,2016-11-05T05:30:00Z,28.1324,-97.0345,0.0,4.1,78.0,4.6,'1111122,1111122,1111122' 
TCOON,ioos:station:TCOON:146:1,2016-11-05T06:30:00Z,28.1324,-97.0345,0.0,3.8,100.0,4.7,'1111122,1111122,1111122' 
TCOON,ioos:station:TCOON:146:1,2016-11-05T07:30:00Z,28.1324,-97.0345,0.0,3.8,102.0,4.8,'1111122,1111122,1111122' 
TCOON,ioos:station:TCOON:146:1,2016-11-05T08:30:00Z,28.1324,-97.0345,0.0,3.9,99.0,4.8,'1111122,1111122,1111122' 
TCOON,ioos:station:TCOON:146:1,2016-11-05T09:30:00Z,28.1324,-97.0345,0.0,3.9,97.0,4.9,'1111122,1111122,1111122' 
TCOON,ioos:station:TCOON:146:1,2016-11-05T10:30:00Z,28.1324,-97.0345,0.0,4.0,88.0,4.8,'1111122,1111122,1111122' 
TCOON,ioos:station:TCOON:146:1,2016-11-05T11:30:00Z,28.1324,-97.0345,0.0,4.1,96.0,4.9,'1111122,1111122,1111122' 
TCOON,ioos:station:TCOON:146:1,2016-11-05T12:30:00Z,28.1324,-97.0345,0.0,3.7,97.0,4.3,'1111122,1111122,1111122' 
TCOON,ioos:station:TCOON:146:1,2016-11-05T13:30:00Z,28.1324,-97.0345,0.0,3.4,93.0,4.2,'1111122,1111122,1111122' 
TCOON,ioos:station:TCOON:146:1,2016-11-05T14:30:00Z,28.1324,-97.0345,0.0,3.8,106.0,4.7,'1111122,1111122,1111122' 
TCOON,ioos:station:TCOON:146:1,2016-11-05T15:30:00Z,28.1324,-97.0345,0.0,3.4,108.0,4.0,'1111122,1111122,1111122' 
TCOON,ioos:station:TCOON:146:1,2016-11-05T16:30:00Z,28.1324,-97.0345,0.0,3.3,110.0,4.1,'1111122,1111122,1111122' 
TCOON,ioos:station:TCOON:146:1,2016-11-05T17:30:00Z,28.1324,-97.0345,0.0,3.5,158.0,4.6,'1111122,1111122,1111122' 
TCOON,ioos:station:TCOON:146:1,2016-11-05T18:30:00Z,28.1324,-97.0345,0.0,3.8,170.0,4.8,'1111122,1111122,1111122' 
TCOON,ioos:station:TCOON:146:1,2016-11-05T19:30:00Z,28.1324,-97.0345,0.0,4.1,177.0,4.8,'1111122,1111122,1111122' 
TCOON,ioos:station:TCOON:146:1,2016-11-05T20:30:00Z,28.1324,-97.0345,0.0,3.7,172.0,4.4,'1111122,1111122,1111122' 
TCOON,ioos:station:TCOON:146:1,2016-11-05T21:30:00Z,28.1324,-97.0345,0.0,3.4,169.0,4.0,'1111122,1111122,1111122' 
TCOON,ioos:station:TCOON:146:1,2016-11-05T22:30:00Z,28.1324,-97.0345,0.0,3.3,180.0,4.1,'1111122,1111122,1111122' 
TCOON,ioos:station:TCOON:146:1,2016-11-05T23:30:00Z,28.1324,-97.0345,0.0,3.6,176.0,4.3,'1111122,1111122,1111122' 
TCOON,ioos:station:TCOON:146:1,2016-11-06T00:30:00Z,28.1324,-97.0345,0.0,3.5,163.0,4.3,'1111122,1111122,1111122' 
TCOON,ioos:station:TCOON:146:1,2016-11-06T01:30:00Z,28.1324,-97.0345,0.0,3.2,185.0,3.7,'1111122,1111122,1111122' 
TCOON,ioos:station:TCOON:146:1,2016-11-06T02:30:00Z,28.1324,-97.0345,0.0,3.2,187.0,3.7,'1111122,1111122,1111122' 
TCOON,ioos:station:TCOON:146:1,2016-11-06T03:30:00Z,28.1324,-97.0345,0.0,3.3,169.0,3.9,'1111122,1111122,1111122' 
TCOON,ioos:station:TCOON:146:1,2016-11-06T04:30:00Z,28.1324,-97.0345,0.0,3.1,168.0,3.9,'1111122,1111122,1111122' 
TCOON,ioos:station:TCOON:146:1,2016-11-06T05:30:00Z,28.1324,-97.0345,0.0,2.8,127.0,3.5,'1111122,1111122,1111122' 
TCOON,ioos:station:TCOON:146:1,2016-11-06T06:30:00Z,28.1324,-97.0345,0.0,4.3,200.0,5.3,'1111122,1111122,1111122' 
TCOON,ioos:station:TCOON:146:1,2016-11-06T07:30:00Z,28.1324,-97.0345,0.0,3.3,178.0,4.4,'1111122,1111122,1111122' 
TCOON,ioos:station:TCOON:146:1,2016-11-06T08:30:00Z,28.1324,-97.0345,0.0,3.4,210.0,4.8,'1111122,1111122,1111122' 
TCOON,ioos:station:TCOON:146:1,2016-11-06T09:30:00Z,28.1324,-97.0345,0.0,3.9,223.0,5.1,'1111122,1111122,1111122' 
TCOON,ioos:station:TCOON:146:1,2016-11-06T10:30:00Z,28.1324,-97.0345,0.0,3.2,247.0,4.2,'1111122,1111122,1111122' 
TCOON,ioos:station:TCOON:146:1,2016-11-06T11:30:00Z,28.1324,-97.0345,0.0,3.0,125.0,3.6,'1111122,1111122,1111122' 
TCOON,ioos:station:TCOON:146:1,2016-11-06T12:30:00Z,28.1324,-97.0345,0.0,3.3,121.0,4.0,'1111122,1111122,1111122' 
TCOON,ioos:station:TCOON:146:1,2016-11-06T13:30:00Z,28.1324,-97.0345,0.0,3.2,139.0,3.9,'1111122,1111122,1111122' 
TCOON,ioos:station:TCOON:146:1,2016-11-06T14:30:00Z,28.1324,-97.0345,0.0,3.2,162.0,3.9,'1111122,1111122,1111122' 
TCOON,ioos:station:TCOON:146:1,2016-11-06T15:30:00Z,28.1324,-97.0345,0.0,3.1,191.0,3.8,'1111122,1111122,1111122' 
TCOON,ioos:station:TCOON:146:1,2016-11-06T16:30:00Z,28.1324,-97.0345,0.0,3.3,212.0,4.0,'1111122,1111122,1111122' 
TCOON,ioos:station:TCOON:146:1,2016-11-06T17:30:00Z,28.1324,-97.0345,0.0,4.4,239.0,5.3,'1111122,1111122,1111122' 
TCOON,ioos:station:TCOON:146:1,2016-11-06T18:30:00Z,28.1324,-97.0345,0.0,5.0,226.0,5.7,'1111122,1111122,1111122' 
TCOON,ioos:station:TCOON:146:1,2016-11-06T19:30:00Z,28.1324,-97.0345,0.0,4.4,228.0,5.4,'1111122,1111122,1111122' 
TCOON,ioos:station:TCOON:146:1,2016-11-06T20:30:00Z,28.1324,-97.0345,0.0,4.4,223.0,5.2,'1111122,1111122,1111122' 
TCOON,ioos:station:TCOON:146:1,2016-11-06T21:30:00Z,28.1324,-97.0345,0.0,4.3,209.0,5.2,'1111122,1111122,1111122' 
TCOON,ioos:station:TCOON:146:1,2016-11-06T22:30:00Z,28.1324,-97.0345,0.0,3.6,203.0,4.4,'1111122,1111122,1111122' 
TCOON,ioos:station:TCOON:146:1,2016-11-06T23:30:00Z,28.1324,-97.0345,0.0,3.3,200.0,3.8,'1111122,1111122,1111122' 
TCOON,ioos:station:TCOON:146:1,2016-11-07T00:30:00Z,28.1324,-97.0345,0.0,3.6,191.0,4.3,'1111122,1111122,1111122' 
TCOON,ioos:station:TCOON:146:1,2016-11-07T01:30:00Z,28.1324,-97.0345,0.0,3.5,202.0,4.5,'1111122,1111122,1111122' 
TCOON,ioos:station:TCOON:146:1,2016-11-07T02:30:00Z,28.1324,-97.0345,0.0,3.1,194.0,3.7,'1111122,1111122,1111122' 
TCOON,ioos:station:TCOON:146:1,2016-11-07T03:30:00Z,28.1324,-97.0345,0.0,3.0,170.0,3.8,'1111122,1111122,1111122' 
TCOON,ioos:station:TCOON:146:1,2016-11-07T04:30:00Z,28.1324,-97.0345,0.0,4.7,88.0,5.5,'1111122,1111122,1111122' 
TCOON,ioos:station:TCOON:146:1,2016-11-07T05:30:00Z,28.1324,-97.0345,0.0,3.8,94.0,4.7,'1111122,1111122,1111122' 
TCOON,ioos:station:TCOON:146:1,2016-11-07T06:30:00Z,28.1324,-97.0345,0.0,3.8,111.0,4.6,'1111122,1111122,1111122' 
TCOON,ioos:station:TCOON:146:1,2016-11-07T07:30:00Z,28.1324,-97.0345,0.0,3.8,139.0,4.6,'1111122,1111122,1111122' 
TCOON,ioos:station:TCOON:146:1,2016-11-07T08:30:00Z,28.1324,-97.0345,0.0,3.3,124.0,3.8,'1111122,1111122,1111122' 
TCOON,ioos:station:TCOON:146:1,2016-11-07T09:30:00Z,28.1324,-97.0345,0.0,3.7,181.0,4.9,'1111122,1111122,1111122' 
TCOON,ioos:station:TCOON:146:1,2016-11-07T10:30:00Z,28.1324,-97.0345,0.0,4.1,181.0,4.9,'1111122,1111122,1111122' 
TCOON,ioos:station:TCOON:146:1,2016-11-07T11:30:00Z,28.1324,-97.0345,0.0,3.1,202.0,3.8,'1111122,1111122,1111122' 
TCOON,ioos:station:TCOON:146:1,2016-11-07T12:30:00Z,28.1324,-97.0345,0.0,3.2,174.0,3.9,'1111122,1111122,1111122' 
TCOON,ioos:station:TCOON:146:1,2016-11-07T13:30:00Z,28.1324,-97.0345,0.0,2.5,126.0,3.1,'1111122,1111122,1111122' 
TCOON,ioos:station:TCOON:146:1,2016-11-07T14:30:00Z,28.1324,-97.0345,0.0,2.0,129.0,2.7,'1111122,1111122,1111122' 
TCOON,ioos:station:TCOON:146:1,2016-11-07T15:30:00Z,28.1324,-97.0345,0.0,3.2,174.0,3.9,'1111122,1111122,1111122' 
TCOON,ioos:station:TCOON:146:1,2016-11-07T16:30:00Z,28.1324,-97.0345,0.0,3.3,164.0,4.0,'1111122,1111122,1111122' 
TCOON,ioos:station:TCOON:146:1,2016-11-07T17:30:00Z,28.1324,-97.0345,0.0,3.4,179.0,4.0,'1111122,1111122,1111122' 
TCOON,ioos:station:TCOON:146:1,2016-11-07T18:30:00Z,28.1324,-97.0345,0.0,3.4,181.0,3.9,'1111122,1111122,1111122' 
TCOON,ioos:station:TCOON:146:1,2016-11-07T19:30:00Z,28.1324,-97.0345,0.0,3.1,181.0,3.9,'1111122,1111122,1111122' 
TCOON,ioos:station:TCOON:146:1,2016-11-07T20:30:00Z,28.1324,-97.0345,0.0,3.8,183.0,4.6,'1111122,1111122,1111122' 
TCOON,ioos:station:TCOON:146:1,2016-11-07T21:30:00Z,28.1324,-97.0345,0.0,4.4,180.0,5.3,'1111122,1111122,1111122' 
TCOON,ioos:station:TCOON:146:1,2016-11-07T22:30:00Z,28.1324,-97.0345,0.0,5.2,176.0,6.1,'1111122,1111122,1111122' 
TCOON,ioos:station:TCOON:146:1,2016-11-07T23:30:00Z,28.1324,-97.0345,0.0,5.0,173.0,5.9,'1111122,1111122,1111122' 
TCOON,ioos:station:TCOON:146:1,2016-11-08T00:30:00Z,28.1324,-97.0345,0.0,4.4,171.0,5.2,'1111122,1111122,1111122' 
TCOON,ioos:station:TCOON:146:1,2016-11-08T01:30:00Z,28.1324,-97.0345,0.0,4.1,160.0,4.9,'1111122,1111122,1111122' 
TCOON,ioos:station:TCOON:146:1,2016-11-08T02:30:00Z,28.1324,-97.0345,0.0,4.0,157.0,5.4,'1111122,1111122,1111122' 
TCOON,ioos:station:TCOON:146:1,2016-11-08T03:30:00Z,28.1324,-97.0345,0.0,4.1,160.0,4.8,'1111122,1111122,1111122' 
TCOON,ioos:station:TCOON:146:1,2016-11-08T04:30:00Z,28.1324,-97.0345,0.0,3.9,172.0,4.7,'1111122,1111122,1111122' 
TCOON,ioos:station:TCOON:146:1,2016-11-08T05:30:00Z,28.1324,-97.0345,0.0,3.4,156.0,4.1,'1111122,1111122,1111122' 
TCOON,ioos:station:TCOON:146:1,2016-11-08T06:30:00Z,28.1324,-97.0345,0.0,3.4,148.0,4.3,'1111122,1111122,1111122' 
TCOON,ioos:station:TCOON:146:1,2016-11-08T07:30:00Z,28.1324,-97.0345,0.0,3.3,150.0,4.0,'1111122,1111122,1111122' 
TCOON,ioos:station:TCOON:146:1,2016-11-08T08:30:00Z,28.1324,-97.0345,0.0,2.8,126.0,3.6,'1111122,1111122,1111122' 
TCOON,ioos:station:TCOON:146:1,2016-11-08T09:30:00Z,28.1324,-97.0345,0.0,3.6,100.0,4.5,'1111122,1111122,1111122' 
TCOON,ioos:station:TCOON:146:1,2016-11-08T10:30:00Z,28.1324,-97.0345,0.0,3.5,105.0,4.3,'1111122,1111122,1111122' 
TCOON,ioos:station:TCOON:146:1,2016-11-08T11:30:00Z,28.1324,-97.0345,0.0,4.1,100.0,4.8,'1111122,1111122,1111122' 
TCOON,ioos:station:TCOON:146:1,2016-11-08T12:30:00Z,28.1324,-97.0345,0.0,3.9,110.0,4.7,'1111122,1111122,1111122' 
TCOON,ioos:station:TCOON:146:1,2016-11-08T13:30:00Z,28.1324,-97.0345,0.0,3.4,110.0,4.2,'1111122,1111122,1111122' 
TCOON,ioos:station:TCOON:146:1,2016-11-08T14:30:00Z,28.1324,-97.0345,0.0,3.5,119.0,4.2,'1111122,1111122,1111122' 
TCOON,ioos:station:TCOON:146:1,2016-11-08T15:30:00Z,28.1324,-97.0345,0.0,4.4,98.0,9.4,'1111122,1111122,1111122' 
TCOON,ioos:station:TCOON:146:1,2016-11-08T16:30:00Z,28.1324,-97.0345,0.0,5.4,97.0,6.4,'1111122,1111122,1111122' 
TCOON,ioos:station:TCOON:146:1,2016-11-08T17:30:00Z,28.1324,-97.0345,0.0,5.4,102.0,6.7,'1111122,1111122,1111122' 
TCOON,ioos:station:TCOON:146:1,2016-11-08T18:30:00Z,28.1324,-97.0345,0.0,4.1,110.0,4.9,'1111122,1111122,1111122' 
TCOON,ioos:station:TCOON:146:1,2016-11-08T19:30:00Z,28.1324,-97.0345,0.0,4.1,73.0,5.0,'1111122,1111122,1111122' 
TCOON,ioos:station:TCOON:146:1,2016-11-08T20:30:00Z,28.1324,-97.0345,0.0,3.8,99.0,4.8,'1111122,1111122,1111122' 
TCOON,ioos:station:TCOON:146:1,2016-11-08T21:30:00Z,28.1324,-97.0345,0.0,3.7,96.0,4.6,'1111122,1111122,1111122' 
TCOON,ioos:station:TCOON:146:1,2016-11-08T22:30:00Z,28.1324,-97.0345,0.0,3.7,92.0,4.7,'1111122,1111122,1111122' 
TCOON,ioos:station:TCOON:146:1,2016-11-08T23:30:00Z,28.1324,-97.0345,0.0,4.2,59.0,5.2,'1111122,1111122,1111122' 
TCOON,ioos:station:TCOON:146:1,2016-11-09T00:30:00Z,28.1324,-97.0345,0.0,4.7,74.0,5.7,'1111122,1111122,1111122' 
TCOON,ioos:station:TCOON:146:1,2016-11-09T01:30:00Z,28.1324,-97.0345,0.0,4.1,98.0,5.0,'1111122,1111122,1111122' 
TCOON,ioos:station:TCOON:146:1,2016-11-09T02:30:00Z,28.1324,-97.0345,0.0,4.1,90.0,4.8,'1111122,1111122,1111122' 
TCOON,ioos:station:TCOON:146:1,2016-11-09T03:30:00Z,28.1324,-97.0345,0.0,4.4,81.0,5.0,'1111122,1111122,1111122' 
TCOON,ioos:station:TCOON:146:1,2016-11-09T04:30:00Z,28.1324,-97.0345,0.0,4.4,65.0,5.0,'1111122,1111122,1111122' 
TCOON,ioos:station:TCOON:146:1,2016-11-09T05:30:00Z,28.1324,-97.0345,0.0,4.3,66.0,5.1,'1111122,1111122,1111122' 
TCOON,ioos:station:TCOON:146:1,2016-11-09T06:30:00Z,28.1324,-97.0345,0.0,4.1,82.0,5.0,'1111122,1111122,1111122' 
TCOON,ioos:station:TCOON:146:1,2016-11-09T07:30:00Z,28.1324,-97.0345,0.0,4.2,65.0,5.0,'1111122,1111122,1111122' 
TCOON,ioos:station:TCOON:146:1,2016-11-09T08:30:00Z,28.1324,-97.0345,0.0,4.2,60.0,5.1,'1111122,1111122,1111122' 
TCOON,ioos:station:TCOON:146:1,2016-11-09T09:30:00Z,28.1324,-97.0345,0.0,4.5,68.0,5.7,'1111122,1111122,1111122' 
TCOON,ioos:station:TCOON:146:1,2016-11-09T10:30:00Z,28.1324,-97.0345,0.0,4.2,62.0,5.0,'1111122,1111122,1111122' 
TCOON,ioos:station:TCOON:146:1,2016-11-09T11:30:00Z,28.1324,-97.0345,0.0,4.6,76.0,5.7,'1111122,1111122,1111122' 
TCOON,ioos:station:TCOON:146:1,2016-11-09T12:30:00Z,28.1324,-97.0345,0.0,4.7,75.0,5.7,'1111122,1111122,1111122' 
TCOON,ioos:station:TCOON:146:1,2016-11-09T13:30:00Z,28.1324,-97.0345,0.0,4.2,74.0,5.1,'1111122,1111122,1111122' 
TCOON,ioos:station:TCOON:146:1,2016-11-09T14:30:00Z,28.1324,-97.0345,0.0,4.2,72.0,5.1,'1111122,1111122,1111122' 
TCOON,ioos:station:TCOON:146:1,2016-11-09T15:30:00Z,28.1324,-97.0345,0.0,4.5,83.0,5.6,'1111122,1111122,1111122' 
TCOON,ioos:station:TCOON:146:1,2016-11-09T16:30:00Z,28.1324,-97.0345,0.0,4.2,96.0,4.8,'1111122,1111122,1111122' 
TCOON,ioos:station:TCOON:146:1,2016-11-09T17:30:00Z,28.1324,-97.0345,0.0,4.9,87.0,6.2,'1111122,1111122,1111122' 
TCOON,ioos:station:TCOON:146:1,2016-11-09T18:30:00Z,28.1324,-97.0345,0.0,4.5,71.0,5.5,'1111122,1111122,1111122' 
TCOON,ioos:station:TCOON:146:1,2016-11-09T19:30:00Z,28.1324,-97.0345,0.0,4.2,81.0,5.0,'1111122,1111122,1111122' 
TCOON,ioos:station:TCOON:146:1,2016-11-09T20:30:00Z,28.1324,-97.0345,0.0,4.1,80.0,5.0,'1111122,1111122,1111122' 
TCOON,ioos:station:TCOON:146:1,2016-11-09T21:30:00Z,28.1324,-97.0345,0.0,4.8,88.0,5.5,'1111122,1111122,1111122' 
TCOON,ioos:station:TCOON:146:1,2016-11-09T22:30:00Z,28.1324,-97.0345,0.0,4.5,91.0,5.4,'1111122,1111122,1111122' 
TCOON,ioos:station:TCOON:146:1,2016-11-09T23:30:00Z,28.1324,-97.0345,0.0,4.0,89.0,4.9,'1111122,1111122,1111122' 
TCOON,ioos:station:TCOON:146:1,2016-11-10T00:30:00Z,28.1324,-97.0345,0.0,4.0,76.0,5.0,'1111122,1111122,1111122' 
TCOON,ioos:station:TCOON:146:1,2016-11-10T01:30:00Z,28.1324,-97.0345,0.0,4.2,73.0,5.2,'1111122,1111122,1111122' 
TCOON,ioos:station:TCOON:146:1,2016-11-10T02:30:00Z,28.1324,-97.0345,0.0,4.3,85.0,5.2,'1111122,1111122,1111122' 
TCOON,ioos:station:TCOON:146:1,2016-11-10T03:30:00Z,28.1324,-97.0345,0.0,4.4,86.0,5.3,'1111122,1111122,1111122' 
TCOON,ioos:station:TCOON:146:1,2016-11-10T04:30:00Z,28.1324,-97.0345,0.0,4.3,75.0,5.4,'1111122,1111122,1111122' 
TCOON,ioos:station:TCOON:146:1,2016-11-10T05:30:00Z,28.1324,-97.0345,0.0,5.3,88.0,6.3,'1111122,1111122,1111122' 
TCOON,ioos:station:TCOON:146:1,2016-11-10T07:30:00Z,28.1324,-97.0345,0.0,4.6,98.0,5.6,'1111122,1111122,1111122' 
TCOON,ioos:station:TCOON:146:1,2016-11-10T08:30:00Z,28.1324,-97.0345,0.0,4.0,100.0,4.9,'1111122,1111122,1111122' 
TCOON,ioos:station:TCOON:146:1,2016-11-10T09:30:00Z,28.1324,-97.0345,0.0,4.8,91.0,5.7,'1111122,1111122,1111122' 
TCOON,ioos:station:TCOON:146:1,2016-11-10T10:30:00Z,28.1324,-97.0345,0.0,4.9,89.0,5.7,'1111122,1111122,1111122' 